x

8413320 - Bar Harbor, Me (atgm1) Weather Station

1:30 - Mon 29th Aug 2016 All times are EDT. -4 hours from GMT.

  • Wind
    20mph, 26mph gusts
  • Sea Temp 58°f
  • Air Temp 76°f
  • Sea Pressure 1011.8mb
  • 8413320 - Bar Harbor, Me
  • 8413320 - Bar Harbor, Me

More Historic Weather Station data

Upgrade to MSW Pro to gain access to the past 30 days of data for over 8000 Wavebouys and Weather Stations around the globe.

Join Pro

Comparision Forecast

View Surf forecast
   
lun. 08/29 1:30 20 26 mph 1011.8mb 58f 76f
1:24 20 28 mph 1011.8mb 58f 75f
1:18 21 28 mph 1011.7mb 58f 76f
1:12 18 28 mph 1011.6mb 58f 76f
1:06 17 24 mph 1011.7mb 58f 76f
1:00 22 28 mph 1011.7mb 58f 76f
12:54 16 21 mph 1011.7mb 58f 75f
12:48 16 24 mph 1011.8mb 58f 74f
12:42 15 22 mph 1011.9mb 58f 74f
12:36 17 21 mph 1012mb 58f 74f
12:30 20 28 mph 1012mb 58f 74f
12:24 22 26 mph 1011.9mb 58f 74f
12:18 21 29 mph 1011.9mb 58f 74f
12:12 21 30 mph 1011.9mb 58f 74f
12:06 20 28 mph 1011.9mb 58f 74f
12:00 22 29 mph 1011.7mb 58f 75f
11:54 21 31 mph 1011.7mb 58f 74f
11:48 20 24 mph 1011.8mb 58f 75f
11:42 18 28 mph 1011.8mb 58f 75f
11:36 20 23 mph 1011.8mb 57f 74f
11:30 13 16 mph 1011.8mb 57f 76f
11:24 10 16 mph 1011.9mb 57f 75f
11:18 11 21 mph 1012mb 57f 75f
11:12 16 21 mph 1011.9mb 57f 75f
11:06 14 17 mph 1011.9mb 57f 75f
11:00 10 16 mph 1012mb 57f 75f
10:54 14 20 mph 1012.1mb 57f 74f
10:48 14 18 mph 1012.2mb 57f 74f
10:42 15 18 mph 1012.2mb 57f 74f
10:36 14 20 mph 1012.2mb 57f 74f
10:30 13 20 mph 1012.2mb 57f 75f
10:24 14 20 mph 1012.2mb 57f 75f
10:18 10 18 mph 1012.2mb 57f 75f
10:12 11 22 mph 1012.2mb 57f 75f
10:06 10 15 mph 1012.2mb 56f 75f
10:00 9 17 mph 1012.1mb 57f 74f
9:54 10 20 mph 1012.2mb 57f 74f
9:48 10 16 mph 1012.2mb 55f 74f
9:42 14 20 mph 1012.3mb 56f 73f
9:36 13 22 mph 1012.3mb 56f 73f
9:30 13 17 mph 1012.2mb 56f 73f
9:24 14 18 mph 1012.4mb 55f 72f
9:18 9 15 mph 1012.5mb 55f 72f
9:12 11 18 mph 1012.5mb 57f 72f
9:06 9 17 mph 1012.4mb 56f 72f
9:00 11 18 mph 1012.3mb 55f 72f
8:54 11 18 mph 1012.3mb 55f 72f
8:48 10 22 mph 1012.3mb 55f 72f
8:42 13 18 mph 1012.3mb 56f 71f
8:36 11 21 mph 1012.4mb 55f 71f
8:30 13 22 mph 1012.4mb 55f 71f
8:24 14 20 mph 1012.4mb 55f 70f
8:18 16 24 mph 1012.4mb 56f 70f
8:12 15 25 mph 1012.5mb 56f 69f
8:06 16 22 mph 1012.5mb 56f 69f
8:00 18 25 mph 1012.7mb 56f 69f
7:54 16 23 mph 1012.8mb 56f 68f
7:48 15 23 mph 1012.9mb 56f 68f
7:42 14 21 mph 1012.9mb 56f 68f
7:36 15 22 mph 1012.9mb 56f 68f
7:30 15 22 mph 1012.9mb 56f 68f
7:24 17 22 mph 1013mb 56f 68f
7:18 15 25 mph 1013.1mb 57f 68f
7:12 14 25 mph 1013.1mb 57f 68f
7:06 16 29 mph 1013.1mb 56f 68f
7:00 14 24 mph 1013.1mb 57f 68f
6:54 17 28 mph 1013mb 57f 68f
6:48 16 24 mph 1013mb 57f 68f
6:42 18 29 mph 1013mb 57f 68f
6:36 16 25 mph 1013mb 57f 68f
6:30 16 31 mph 1013.1mb 57f 68f
6:24 16 26 mph 1013.2mb 57f 68f
6:18 17 23 mph 1013.2mb 57f 68f
6:12 16 26 mph 1013.4mb 57f 68f
6:06 15 25 mph 1013.5mb 57f 68f
6:00 18 25 mph 1013.5mb 57f 68f
5:54 15 23 mph 1013.8mb 57f 68f
5:48 17 25 mph 1013.7mb 58f 68f
5:42 20 31 mph 1013.7mb 58f 68f
5:36 14 29 mph 1013.7mb 58f 68f
5:30 14 23 mph 1013.8mb 58f 68f
5:24 15 25 mph 1014mb 58f 68f
5:18 13 23 mph 1014.4mb 58f 68f
5:12 14 28 mph 1014.3mb 58f 68f
5:06 14 21 mph 1014.4mb 58f 68f
5:00 15 23 mph 1014.5mb 58f 68f
4:54 15 21 mph 1014.5mb 58f 68f
4:48 18 29 mph 1014.4mb 58f 68f
4:42 15 26 mph 1014.6mb 58f 68f
4:36 17 25 mph 1014.5mb 58f 68f
4:30 20 30 mph 1014.6mb 58f 68f
4:24 16 26 mph 1014.7mb 58f 68f
4:18 15 28 mph 1014.8mb 58f 68f
4:12 18 30 mph 1014.9mb 58f 68f
4:06 14 25 mph 1015mb 58f 68f
4:00 20 26 mph 1015.1mb 58f 68f
3:54 16 26 mph 1015.3mb 58f 68f
3:48 17 26 mph 1015.3mb 58f 68f
3:42 15 23 mph 1015.3mb 58f 68f
3:36 13 25 mph 1015.3mb 58f 68f
3:30 11 24 mph 1015.4mb 58f 68f
3:24 13 24 mph 1015.6mb 58f 68f
3:18 11 23 mph 1015.7mb 58f 68f
3:12 8 22 mph 1015.9mb 58f 67f
3:06 10 22 mph 1016mb 58f 68f
3:00 10 21 mph 1016.1mb 58f 68f
2:54 8 16 mph 1016.2mb 58f 67f
2:48 6 17 mph 1016.3mb 58f 67f
2:42 6 11 mph 1016.5mb 58f 67f
2:36 5 11 mph 1016.6mb 58f 67f
2:30 5 15 mph 1016.7mb 58f 67f
2:24 9 18 mph 1016.7mb 58f 67f
2:18 2 10 mph 1016.9mb 58f 66f
2:12 8 13 mph 1016.9mb 58f 66f
2:06 5 10 mph 1017mb 58f 66f
2:00 7 10 mph 1017.2mb 58f 66f
1:54 3 10 mph 1017.3mb 58f 66f
1:48 5 14 mph 1017.4mb 58f -
1:42 6 9 mph 1017.4mb 58f -
1:36 7 11 mph 1017.4mb 58f -
1:30 7 15 mph 1017.5mb 58f 66f
1:24 5 14 mph 1017.5mb 58f 66f
1:18 8 14 mph 1017.6mb 58f 66f
1:12 7 13 mph 1017.6mb 58f 66f
1:06 7 15 mph 1017.8mb 58f 66f
1:00 8 15 mph 1017.9mb 58f 66f
12:54 7 17 mph 1018.1mb 58f 66f
12:48 5 11 mph 1018.2mb 58f 66f
12:42 6 9 mph 1018.3mb 58f 65f
12:36 5 9 mph 1018.2mb 58f 65f
12:30 5 9 mph 1018.1mb 58f 65f
12:24 5 11 mph 1018.2mb 58f 65f
12:18 8 11 mph 1018.3mb 58f 66f
12:12 6 10 mph 1018.3mb 58f 66f
12:06 6 13 mph 1018.4mb 58f 66f
12:00 7 11 mph 1018.6mb 58f 66f
dim. 08/28 11:54 5 9 mph 1018.8mb 58f 66f
11:48 6 11 mph 1018.8mb 58f 66f
11:42 3 14 mph 1019mb 58f 66f
11:36 3 15 mph 1018.9mb 58f 66f
11:30 3 13 mph 1019.1mb 58f 66f
11:24 1 8 mph 1019.2mb 58f 66f
11:18  -  3 mph 1019.3mb 58f 65f
11:12 2 3 mph 1019.3mb 58f 65f
11:06  -  3 mph 1019.4mb 58f 65f
11:00 3 6 mph 1019.4mb 58f 65f
10:54 3 7 mph 1019.5mb 58f 65f
10:48 5 10 mph 1019.6mb 58f 65f
10:42 5 9 mph 1019.6mb 58f 65f
10:36 6 11 mph 1019.6mb 58f 65f
10:30 5 10 mph 1019.7mb 58f 65f
10:24 3 8 mph 1019.7mb 58f 65f
10:18 5 9 mph 1019.8mb 58f 65f
10:12 2 6 mph 1020mb 58f 65f
10:06 1 7 mph 1020.1mb 58f 66f
10:00 3 6 mph 1020.2mb 58f 65f
9:54 3 7 mph 1020.2mb 58f 65f
9:48 2 6 mph 1020.1mb 58f 65f
9:42 5 9 mph 1020.2mb 58f 65f
9:36 6 9 mph 1020.3mb 58f 66f
9:30 3 7 mph 1020.5mb 58f 65f
9:24 5 9 mph 1020.6mb 58f 65f
9:18 3 7 mph 1020.4mb 58f 65f
9:12 3 6 mph 1020.5mb 59f 65f
9:06 3 7 mph 1020.7mb 59f 65f
9:00  -  mph 1020.9mb 59f 65f
8:54  -  mph 1021.1mb 59f 65f
8:48 3 7 mph 1021.2mb 59f 65f
8:42 3 7 mph 1021mb 59f 65f
8:36 3 9 mph 1021mb 59f 65f
8:30 6 9 mph 1021.2mb 58f 65f
8:24 5 9 mph 1021.2mb 57f 65f
8:18  -  mph 1021.2mb 57f 65f
8:12  -  mph 1021.2mb 57f 65f
8:06  -  mph 1021.1mb 58f 65f
8:00 6 11 mph 1021mb 59f 65f
7:54 8 13 mph 1021.1mb 58f 65f
7:48 7 13 mph - 58f 65f
7:42 8 13 mph - 58f 65f
7:36 6 9 mph - 58f 65f
7:30 3 10 mph 1020.9mb 58f 65f
7:24 6 10 mph 1021.1mb 57f 64f
7:18  -  mph 1021.1mb 57f 64f
7:12  -  mph 1021.1mb 57f 65f
7:06  -  mph 1021.1mb 57f 65f
7:00 6 10 mph 1021.1mb 57f 65f
6:54 5 10 mph 1021.2mb 58f 65f
6:48  -  mph - 58f -
6:42  -  mph - 58f -
6:36  -  mph - 58f -
6:30 8 13 mph 1021.3mb 58f 66f
6:24 8 11 mph 1021.4mb 58f 66f
6:18  -  mph 1021.4mb 58f 66f
6:12  -  mph 1021.4mb 58f 67f
6:06  -  mph 1021.5mb 58f 67f
6:00  -  mph 1021.5mb 58f 67f
5:54  -  mph 1021.5mb 58f 67f
5:48  -  mph - 58f 67f
5:42  -  mph - 59f 68f
5:36  -  mph - 59f 67f
5:30 6 10 mph 1021.8mb 59f 67f
5:24 6 9 mph 1021.8mb 60f 67f
5:18 6 8 mph 1021.9mb 60f 67f
5:12 5 8 mph 1022.1mb 59f 68f
5:06 6 9 mph 1022.1mb 60f 68f
5:00 6 9 mph 1022.2mb 59f 68f
4:54 5 8 mph 1022.2mb 60f 67f
4:48 5 8 mph 1022.3mb 60f 67f
4:42 6 9 mph 1022.4mb 61f 66f
4:36 5 7 mph 1022.5mb 61f 66f
4:30 6 9 mph 1022.5mb 61f 66f
4:24 8 10 mph 1022.5mb 62f 65f
4:18 6 10 mph 1022.7mb 62f 65f
4:12 6 10 mph 1022.7mb 62f 65f
4:06 7 10 mph 1022.8mb 62f 65f
4:00 8 10 mph 1022.8mb 62f 65f
3:54 7 13 mph 1022.8mb 62f 65f
3:48 6 11 mph 1022.8mb 62f 65f
3:42 9 15 mph 1022.9mb 62f 65f
3:36 8 13 mph 1023mb 62f 66f
3:30 9 13 mph 1022.9mb 62f 66f
3:24 8 13 mph 1023mb 62f 67f
3:18 8 11 mph 1023mb 62f 67f
3:12 10 13 mph 1022.9mb 62f 68f
3:06 10 14 mph 1023mb 62f 68f
3:00 10 13 mph 1023mb 62f 67f
2:54 8 11 mph 1023.1mb 62f 67f
2:48 11 14 mph 1023.3mb 61f 62f
2:42 9 13 mph 1023.5mb 61f 62f
2:36 10 15 mph 1023.5mb 61f 63f
2:30 10 16 mph 1023.5mb 61f 63f
2:24 11 15 mph 1023.5mb 61f 63f
2:18 9 13 mph 1023.5mb 61f 64f
2:12 8 13 mph 1023.5mb 61f 64f
2:06 13 16 mph 1023.6mb 61f 62f
2:00 10 15 mph 1023.7mb 61f 62f
1:54 11 16 mph 1023.7mb 61f 62f
1:48 13 15 mph 1023.8mb 61f 61f
1:42 10 15 mph 1023.9mb 61f 62f
1:36 9 14 mph 1024mb 61f 62f
1:30 10 15 mph 1024mb 61f 62f
1:24 11 14 mph 1024.2mb 61f 62f
1:18 10 14 mph 1024.3mb 61f 62f
1:12 9 15 mph 1024.3mb 61f 62f
1:06 10 16 mph 1024.3mb 61f 62f
1:00 9 13 mph 1024.3mb 61f 62f
12:54 9 13 mph 1024.4mb 61f 63f
12:48 10 15 mph 1024.4mb 61f 63f
12:42 9 13 mph 1024.5mb 61f 63f
12:36 10 13 mph 1024.5mb 61f 63f
12:30 10 14 mph 1024.5mb 61f 63f
12:24 9 13 mph 1024.5mb 61f 63f
12:18 10 14 mph 1024.6mb 61f 63f
12:12 9 13 mph 1024.6mb 61f 63f
12:06 9 14 mph 1024.7mb 61f 64f
12:00 8 11 mph 1024.7mb 61f 64f
11:54 9 13 mph 1024.8mb 60f 64f
11:48 6 7 mph 1024.9mb 60f 65f
11:42 6 9 mph 1025mb 61f 65f
11:36 7 11 mph 1025.1mb 61f 64f
11:30 9 13 mph 1025.2mb 61f 64f
11:24 10 13 mph 1025.2mb 61f 63f
11:18 10 14 mph 1025.3mb 61f 63f
11:12 9 13 mph 1025.3mb 61f 62f
11:06 10 13 mph 1025.3mb 61f 62f
11:00 9 11 mph 1025.4mb 60f 62f
10:54 9 13 mph 1025.4mb 61f 62f
10:48 9 10 mph 1025.5mb 61f 62f
10:42 10 13 mph 1025.5mb 61f 62f
10:36 10 11 mph 1025.5mb 61f 62f
10:30 9 11 mph 1025.5mb 61f 62f
10:24 7 8 mph 1025.5mb 61f 62f
10:18 5 7 mph 1025.5mb 61f 63f
10:12 6 10 mph 1025.4mb 61f 62f
10:06 6 9 mph 1025.4mb 60f 62f
10:00 8 11 mph 1025.5mb 60f 62f
9:54 9 13 mph 1025.4mb 61f 61f
9:48 8 10 mph 1025.4mb 60f 62f
9:42 8 10 mph 1025.4mb 60f 62f
9:36 9 11 mph 1025.4mb 60f 62f
9:30 9 10 mph 1025.4mb 60f 62f
9:24 6 10 mph 1025.4mb 60f 62f
9:18 8 10 mph 1025.3mb 60f 62f
9:12 8 10 mph 1025.3mb 60f 62f
9:06 8 10 mph 1025.3mb 59f 62f
9:00 6 9 mph 1025.3mb 59f 62f
8:54 5 7 mph 1025.3mb 59f 62f
8:48 3 7 mph 1025.3mb 58f 62f
8:42 5 6 mph 1025.3mb 58f 62f
8:36 5 7 mph 1025.3mb 59f 61f
8:30 6 7 mph 1025.4mb 60f 61f
8:24 7 8 mph 1025.4mb 61f 61f
8:18 6
mph
1025.4mb 60f 61f
8:12 5 6 mph 1025.3mb 60f 62f
8:06 5 6 mph 1025.4mb 60f 62f
8:00 6
mph
1025.5mb 60f -
7:54 3
mph
1025.5mb 60f -
7:48 3 6 mph 1025.6mb 59f 61f
7:42 6 7 mph 1025.7mb 58f 61f
7:36 3 6 mph 1025.6mb 58f 62f
7:30 5 6 mph 1025.6mb 58f 62f
7:24 3 5 mph 1025.5mb 59f 61f
7:18 3 5 mph 1025.5mb 59f 61f
7:12 3 5 mph 1025.4mb 58f 62f
7:06 1 2 mph 1025.4mb 58f 62f
7:00  -  1 mph 1025.4mb 59f 62f
6:54  -  1 mph 1025.4mb 58f 62f
6:48  -  1 mph 1025.4mb 58f 62f
6:42  -  1 mph 1025.4mb 58f 62f
6:36 1 2 mph 1025.3mb 58f 61f
6:30 1 2 mph 1025.3mb 58f 61f
6:24  -  1 mph 1025.3mb 58f 61f
6:18  -  3 mph 1025.3mb 58f 60f
6:12  -  2 mph 1025.2mb 58f 60f
6:06  -  1 mph 1025.3mb 58f 59f
6:00  -  1 mph 1025.4mb 58f 59f
5:54  -  1 mph 1025.4mb 59f 59f
5:48 1 2 mph 1025.3mb 59f 59f
5:42 1 2 mph 1025.1mb 59f 58f
5:36  -  1 mph 1025mb 59f 59f
5:30  -  1 mph 1024.9mb 59f 59f
5:24  -  1 mph 1024.8mb 59f 59f
5:18 1
mph
1024.8mb 59f 59f
5:12  -  1 mph 1024.8mb 59f 59f
5:06 1 2 mph 1024.6mb 59f 59f
5:00 1 2 mph 1024.6mb 60f 59f
4:54 1 2 mph 1024.5mb 60f 59f
4:48  -  1 mph 1024.4mb 60f 59f
4:42 1 2 mph 1024.5mb 60f 59f
4:36 1 2 mph 1024.5mb 60f 59f
4:30  -  2 mph 1024.4mb 60f 59f
4:24 1
mph
1024.3mb 61f 59f
4:18 1 2 mph 1024.4mb 61f 59f
4:12  -  1 mph 1024.3mb 60f 59f
4:06  -  1 mph 1024.3mb 60f 59f
4:00 1 2 mph 1024.2mb 61f 60f
3:54 2 3 mph 1024.1mb 61f 60f
3:48 2
mph
1024.2mb 61f 59f
3:42 2
mph
1024.2mb 61f 59f
3:36 1 3 mph 1024.2mb 61f 59f
3:30 2 5 mph 1024.1mb 61f 59f
3:24 2 3 mph 1024.1mb 61f 59f
3:18  -  1 mph 1024.1mb 62f 60f
3:12 1
mph
1024.2mb 62f 60f
3:06  -  1 mph 1024.1mb 62f 60f
3:00  -  mph 1024mb 62f 60f
2:54  -  mph 1024mb 62f 60f
2:48  -  1 mph 1023.9mb 62f 60f
2:42  -  1 mph 1023.9mb 62f 60f
2:36  -  1 mph 1024mb 62f 60f
2:30  -  1 mph 1024.1mb 62f 61f
2:24 1 2 mph 1024mb 62f 61f
2:18  -  1 mph 1024mb 62f 61f
2:12 1 3 mph 1024.1mb 62f 61f
2:06 2 3 mph 1024.2mb 62f 61f
2:00 1 2 mph 1024.2mb 62f 62f
1:54  -  1 mph 1024.3mb 62f 61f
1:48 2 5 mph 1024.3mb - -
1:42 3 5 mph 1024.4mb - -
1:36 3 6 mph 1024.4mb - -
1:30 5 6 mph 1024.3mb 62f 61f
1:24 2
mph
1024.2mb 62f 62f
1:18 2 3 mph 1024.1mb 62f 62f
1:12 2 3 mph 1024.2mb 62f 62f
1:06 3
mph
1024.2mb 62f 62f
1:00 2
mph
1024.1mb 62f 63f
12:54 2
mph
1024mb 62f 63f
12:48 2 3 mph 1024.1mb 62f 63f
12:42 3
mph
1024.1mb 62f 63f
12:36 2
mph
1024.1mb 62f 63f
12:30 2 3 mph 1024.2mb 62f 63f
12:24 2 3 mph 1024.1mb 62f 62f
12:18 1 3 mph 1024.1mb 62f 63f
12:12 3
mph
1024mb 62f 63f
12:06 2 3 mph 1024mb 62f 62f
12:00  -  2 mph 1024mb 62f 63f
sam. 08/27 11:54  -  1 mph 1023.9mb 62f 63f
11:48  -  1 mph 1023.9mb 62f 63f
11:42 1 2 mph 1024mb 62f 64f
11:36 2 3 mph 1024mb 62f 63f
11:30 2 3 mph 1023.9mb 62f 63f
11:24 2
mph
1023.9mb 62f 64f
11:18 2
mph
1023.8mb 62f 64f
11:12 1 2 mph 1023.8mb 62f 64f
11:06 1 3 mph 1023.8mb 62f 64f
11:00 2 3 mph 1023.8mb 62f 64f
10:54  -  2 mph 1023.7mb 62f 64f
10:48 2 3 mph 1023.7mb 62f 64f
10:42 1 3 mph 1023.7mb 61f 64f
10:36 2 3 mph 1023.6mb 61f 64f
10:30 2
mph
1023.5mb 61f 65f
10:24  -  3 mph 1023.5mb 61f 64f
10:18  -  mph 1023.5mb 61f 64f
10:12  -  mph 1023.5mb 61f 64f
10:06  -  mph 1023.4mb 61f 65f
10:00  -  1 mph 1023.4mb 61f 66f
9:54 1 2 mph 1023.3mb 61f 65f
9:48  -  1 mph 1023.3mb 61f 65f
9:42  -  1 mph 1023.3mb 61f 66f
9:36  -  1 mph 1023.2mb 60f 66f
9:30  -  mph 1023.2mb 60f 67f
9:24  -  mph 1023.2mb 60f 67f
9:18  -  3 mph 1023.1mb 60f 68f
9:12 1 3 mph 1023.2mb 60f 68f
9:06 2
mph
1023.1mb 61f 68f
9:00  -  mph 1023.1mb 61f 68f
8:54  -  mph 1023mb 61f 68f
8:48 2 5 mph 1023mb 61f 68f
8:42  -  3 mph 1022.9mb 61f 69f
8:36 2 5 mph 1022.9mb 61f 70f
8:30 3 5 mph 1022.8mb 61f 70f
8:24 1 2 mph 1022.7mb 61f 70f
8:18 2
mph
1022.6mb 61f 70f
8:12 1 10 mph 1022.5mb 62f 71f
8:06 1 2 mph 1022.4mb 61f 69f
8:00 2
mph
1022.3mb 60f 68f
7:54  -  2 mph 1022.1mb 61f 69f
7:48  -  1 mph 1022.1mb 59f -
7:42  -  1 mph 1022mb 59f -
7:36  -  1 mph 1022.1mb 59f -
7:30  -  mph 1022mb 59f 69f
7:24  -  mph 1021.9mb 59f 70f
7:18 3 6 mph 1021.9mb 59f 72f
7:12 5 6 mph 1021.8mb 59f 71f
7:06 5 6 mph 1021.7mb 59f 72f
7:00 5 6 mph 1021.6mb 59f 73f
6:54 5 7 mph 1021.5mb 59f 74f
6:48 6 8 mph - - -
6:42 6 7 mph - - -
6:36 5 6 mph - - -
6:30 6 7 mph 1021.3mb 59f 73f
6:24 5 8 mph 1021.3mb 59f 74f
6:18 6 8 mph 1021.3mb 59f 76f
6:12 6 8 mph 1021.1mb 59f 76f
6:06 6 9 mph 1021.1mb 59f 75f
6:00 6 8 mph 1021mb 59f 76f
5:54 6 9 mph 1021.1mb 59f 76f
5:48  -  mph - 59f 76f
5:42  -  mph - 59f 76f
5:36  -  mph - 59f 76f
5:30 5 7 mph 1020.9mb 59f 75f
5:24 5 7 mph 1021mb 59f 73f
5:18 5 8 mph 1021mb 59f 74f
5:12 6 9 mph 1020.9mb 60f 75f
5:06 6 9 mph 1020.9mb 59f 75f
5:00 7 9 mph 1020.9mb 59f 76f
4:54 5 10 mph 1020.8mb 59f 75f
4:48 5 9 mph 1020.8mb 60f 73f
4:42 6 10 mph 1020.8mb 60f 75f
4:36 6 9 mph 1020.8mb 60f 76f
4:30 7 10 mph 1020.8mb 60f 75f
4:24 7 8 mph 1020.8mb 60f 75f
4:18 5 9 mph 1020.7mb 61f 76f
4:12 5 7 mph 1020.7mb 61f 76f
4:06 6 8 mph 1020.6mb 61f 76f
4:00 6 10 mph 1020.6mb 61f 76f
3:54 6 8 mph 1020.5mb 61f 76f
3:48 6 10 mph 1020.5mb 61f 76f
3:42 6 9 mph 1020.5mb 62f 76f
3:36 6 8 mph 1020.4mb 61f 76f
3:30 6 10 mph 1020.4mb 61f 75f
3:24 6 9 mph 1020.3mb 61f 75f
3:18 6 9 mph 1020.2mb 61f 75f
3:12 6 10 mph 1020.2mb 61f 75f
3:06 8 11 mph 1020.1mb 61f 76f
3:00 7 10 mph 1020.1mb 61f 75f
2:54 6 9 mph 1020.1mb 62f 75f
2:48 6 11 mph 1020mb 62f 74f
2:42 6 10 mph 1020mb 62f 75f
2:36 8 13 mph 1020.1mb 62f 74f
2:30 8 14 mph 1020.1mb 62f 74f
2:24 7 11 mph 1020.1mb 62f 75f
2:18 8 11 mph 1020.1mb 62f 74f
2:12 8 10 mph 1020mb 62f 75f
2:06 7 11 mph 1020mb 62f 75f
2:00 8 10 mph 1020.1mb 62f 75f
1:54 8 10 mph 1020.1mb 62f 74f
1:48 6 14 mph 1020.2mb 62f 74f
1:42 7 13 mph 1020.2mb 62f 74f
1:36 9 13 mph 1020.1mb 62f 74f
1:30 9 14 mph 1020mb 62f 74f
1:24 7 14 mph 1020mb 62f 74f
1:18 7 9 mph 1019.9mb 62f 74f
1:12 7 10 mph 1019.9mb 62f 74f
1:06 8 9 mph 1019.9mb 61f 74f
1:00 7 11 mph 1019.9mb 62f 73f
12:54 7 9 mph 1019.9mb 62f 74f
12:48 7 10 mph 1019.9mb 61f 73f
12:42 8 13 mph 1019.9mb 62f 73f
12:36 9 15 mph 1019.8mb 62f 74f
12:30 11 15 mph 1019.8mb 62f 74f
12:24 10 15 mph 1019.7mb 62f 73f
12:18 11 15 mph 1019.7mb 62f 74f
12:12 10 15 mph 1019.7mb 62f 73f
12:06 11 14 mph 1019.8mb 62f 73f
12:00 11 16 mph 1019.7mb 62f 73f
11:54 9 13 mph 1019.9mb 62f 73f
11:48 11 15 mph 1019.9mb 62f 73f
11:42 11 16 mph 1019.8mb 62f 73f
11:36 10 14 mph 1019.9mb 62f 72f
11:30 8 13 mph 1019.9mb 62f 72f
11:24 9 11 mph 1019.9mb 61f 72f
11:18 9 13 mph 1019.9mb 61f 72f
11:12 10 13 mph 1019.8mb 61f 71f
11:06 8 13 mph 1019.9mb 61f 72f
11:00 10 13 mph 1019.9mb 61f 72f
10:54 8 10 mph 1019.9mb 61f 72f
10:48 7 10 mph 1020mb 60f 71f
10:42 10 11 mph 1020mb 61f 71f
10:36 10 13 mph 1020mb 61f 70f
10:30 9 11 mph 1020mb 61f 69f
10:24 8 10 mph 1020mb 61f 67f
10:18 8 11 mph 1020mb 60f 70f
10:12 9 13 mph 1020mb 60f 70f
10:06 10 13 mph 1020mb 60f 69f
10:00 10 14 mph 1020mb 60f 69f
9:54 10 14 mph 1020.1mb 60f 68f
9:48 13 15 mph 1020mb 60f 69f
9:42 11 14 mph 1019.9mb 60f 69f
9:36 9 15 mph 1019.9mb 60f 68f
9:30 7 13 mph 1019.9mb 60f 68f
9:24 7 11 mph 1019.8mb 60f 67f
9:18 9 11 mph 1019.7mb 60f -
9:12 10 13 mph 1019.6mb 60f -
9:06 9 13 mph 1019.6mb 60f -
9:00 10 13 mph 1019.5mb 60f 67f
8:54 9 14 mph 1019.4mb 60f 67f
8:48 10 13 mph 1019.3mb 59f 66f
8:42 9 11 mph 1019.3mb 59f 66f
8:36 11 15 mph 1019.2mb 60f 66f
8:30 10 13 mph 1019.3mb 60f 66f
8:24 10 14 mph 1019.3mb 60f 66f
8:18 10 14 mph 1019.2mb 60f 66f
8:12 9 14 mph 1019.1mb 60f 66f
8:06 9 11 mph 1019.1mb 60f 66f
8:00 8 10 mph 1019mb 60f 65f
7:54 7
mph
1018.9mb 60f 65f
7:48 7 9 mph 1018.9mb 60f 65f
7:42 9 10 mph 1018.9mb 60f 65f
7:36 9 10 mph 1019mb 60f 66f
7:30 9 10 mph 1018.9mb 60f 66f
7:24 7 9 mph 1018.9mb 60f 66f
7:18 8 10 mph 1018.7mb 60f 65f
7:12 8 9 mph 1018.7mb 60f 65f
7:06 8 9 mph 1018.7mb 60f 65f
7:00 7 9 mph 1018.5mb 59f 66f
6:54 6 7 mph 1018.4mb 59f 65f
6:48 6 7 mph 1018.3mb 59f 66f
6:42 6
mph
1018.2mb 59f 65f
6:36 6
mph
1018.1mb 59f 65f
6:30 6
mph
1018mb 59f 65f
6:24 6 7 mph 1017.9mb 59f 65f
6:18 5 6 mph 1017.8mb 59f 65f
6:12 5
mph
1017.8mb 59f 65f
6:06 5 7 mph 1017.7mb 59f 64f
6:00 6 7 mph 1017.6mb 59f 64f
5:54 6 8 mph 1017.4mb 59f 63f
5:48 7 8 mph 1017.3mb 59f 64f
5:42 7 8 mph 1017.3mb 59f 64f
5:36 6 8 mph 1017.2mb 59f 66f
5:30 6 9 mph 1017.2mb 59f 66f
5:24 6 8 mph 1017.2mb 59f 67f
5:18 7 8 mph 1017.1mb 59f 67f
5:12 7 8 mph 1017mb 59f 67f
5:06 7 8 mph 1016.8mb 58f 67f
5:00 7 9 mph 1016.8mb 59f 67f
4:54 8 9 mph 1016.8mb 59f 67f
4:48 9 11 mph 1016.6mb 58f 68f
4:42 10 13 mph 1016.5mb 58f 68f
4:36 11 13 mph 1016.5mb 59f 67f
4:30 9 10 mph 1016.4mb 59f 67f
4:24 6 7 mph 1016.3mb 59f 67f
4:18 6 7 mph 1016.2mb 59f 67f
4:12 5 7 mph 1016.2mb 59f 66f
4:06 7 8 mph 1016.2mb 59f 65f
4:00 7 8 mph 1016.2mb 59f 65f
3:54 7 8 mph 1016.1mb 58f 66f
3:48 7
mph
1016.2mb 59f 66f
3:42 7 8 mph 1016.1mb 59f 66f
3:36 8 10 mph 1016mb 59f 67f
3:30 9 10 mph 1016mb 59f 67f
3:24 8 9 mph 1015.9mb 59f 68f
3:18 8 9 mph 1015.9mb 59f 68f
3:12 7 8 mph 1015.9mb 59f 68f
3:06 7 9 mph 1015.8mb 59f 69f
3:00 7 9 mph 1015.6mb 59f 70f
2:54 9 13 mph 1015.5mb 59f 71f
2:48 10 15 mph 1015.5mb 59f 71f
2:42 9 14 mph 1015.4mb 59f 71f
2:36 8 13 mph 1015.4mb 59f 71f
2:30 7 16 mph 1015.4mb 59f 71f
2:24 9 15 mph 1015.3mb 59f 72f
2:18 8 11 mph 1015.3mb 59f 72f
2:12 7 11 mph 1015.3mb 59f 72f
2:06 8 10 mph 1015.3mb 59f 72f
2:00 7 13 mph 1015.2mb 59f 72f
1:54 7 13 mph 1015.2mb 59f 72f
1:48 8 13 mph 1015.2mb 59f 73f
1:42 7 11 mph 1015.1mb 59f 72f
1:36 7 9 mph 1015mb 59f 71f
1:30 7 8 mph 1015mb 59f 71f
1:24 5 7 mph 1015mb 59f 71f
1:18 6 8 mph 1014.8mb 59f 69f
1:12 8 9 mph 1014.7mb 59f 70f
1:06 7 9 mph 1014.6mb 60f 70f
1:00 8 9 mph 1014.6mb 60f 72f
12:54 8 9 mph 1014.7mb 60f 72f
12:48 8 9 mph 1014.7mb 60f 72f
12:42 9 10 mph 1014.6mb 60f 70f
12:36 8 11 mph 1014.5mb 60f 70f
12:30 9 14 mph 1014.5mb 60f 72f
12:24 9 13 mph 1014.5mb 60f 71f
12:18 9 13 mph 1014.4mb 60f 72f
12:12 10 13 mph 1014.3mb 60f 74f
12:06 8 11 mph 1014.2mb 59f 74f
12:00 9 13 mph 1014.2mb 59f 74f
ven. 08/26 11:54 9 11 mph 1014.1mb 59f 72f
11:48 10 11 mph 1014.1mb 59f 72f
11:42 10 11 mph 1014mb 59f 73f
11:36 10 14 mph 1014mb 59f 73f
11:30 10 14 mph 1013.9mb 59f 74f
11:24 10 13 mph 1013.9mb 59f 73f
11:18 10 13 mph 1013.9mb 59f 74f
11:12 10 13 mph 1013.9mb 59f 74f
11:06 11 14 mph 1013.8mb 59f 74f
11:00 13 15 mph 1013.7mb 59f 75f
10:54 11 15 mph 1013.6mb 59f 75f
10:48 10 14 mph 1013.6mb 59f 75f
10:42 8 11 mph 1013.6mb 59f 75f
10:36 9 14 mph 1013.5mb 59f 75f
10:30 10 15 mph 1013.4mb 59f 75f
10:24 13 17 mph 1013.3mb 59f 76f
10:18  -  mph 1013.2mb 59f 76f
10:12  -  mph 1013.2mb 59f 76f
10:06  -  mph 1013.1mb 58f 76f
10:00  -  mph 1013mb 58f 76f
9:54  -  mph 1012.9mb 59f 76f
9:48 9 13 mph 1012.9mb 59f 76f
9:42 9 13 mph 1012.7mb 59f 76f
9:36 6 11 mph 1012.7mb 59f 76f
9:30 8 13 mph 1012.7mb 59f 76f
9:24 7 14 mph 1012.6mb 59f 76f
9:18  -  mph - 59f 75f
9:12  -  mph - 60f 75f
9:06  -  mph - 60f 75f
9:00 11 17 mph - 60f 76f
8:54 10 18 mph - 59f 76f
8:48 14 21 mph 1012mb 59f 76f
8:42 10 16 mph 1012.1mb 59f 76f
8:36 10 20 mph 1012mb 59f 76f
8:30 14 21 mph - 59f 76f
8:24 11 16 mph - 59f 76f
8:18  -  mph 1011.7mb 59f 76f
8:12  -  mph 1011.6mb 60f 72f
8:06  -  mph 1011.6mb 59f 69f
8:00  -  3 mph 1011.5mb 59f 68f
7:54 5 6 mph 1011.4mb 59f 68f
7:48  -  mph 1011.3mb 59f -
7:42  -  mph 1011.2mb 59f -
7:36  -  mph 1011.1mb 59f -
7:30 3 5 mph 1011mb 59f 66f
7:24 3 6 mph 1011mb 59f 65f
7:18 5 7 mph 1010.9mb 60f 67f
7:12 3 6 mph 1010.9mb 60f 70f
7:06 3 5 mph 1010.8mb 60f 70f
7:00 6 10 mph 1010.8mb 60f 77f
6:54 2 7 mph 1010.7mb 60f 76f
6:48 3 6 mph 1010.8mb 60f 73f
6:42 5 7 mph 1010.8mb 60f 67f
6:36 2 10 mph 1010.7mb 60f 75f
6:30 7 11 mph - 60f 79f
6:24 6 9 mph - 60f 79f
6:18  -  mph 1010.6mb 60f 79f
6:12  -  mph 1010.5mb 60f 78f
6:06  -  mph 1010.5mb 60f 75f
6:00  -  mph 1010.4mb 59f 80f
5:54  -  mph 1010.3mb 59f 81f
5:48 5 8 mph 1010.3mb 59f 82f
5:42 7 9 mph 1010.3mb 59f 82f
5:36 5 9 mph 1010.4mb 59f 82f
5:30 6 9 mph 1010.5mb 59f 82f
5:24 5 10 mph 1010.6mb 59f 82f
5:18 7 11 mph 1010.5mb 59f 82f
5:12 6 13 mph 1010.4mb 59f 82f
5:06 8 11 mph 1010.5mb 59f 81f
5:00 5 8 mph 1010.5mb 59f 82f
4:54 5 13 mph 1010.5mb 59f 82f
4:48 9 13 mph 1010.5mb 59f 82f
4:42 7 14 mph 1010.4mb 58f 81f
4:36 8 14 mph 1010.5mb 58f 82f
4:30 6 14 mph 1010.5mb 58f 82f
4:24 8 11 mph 1010.4mb 59f 82f
4:18 3 10 mph 1010.6mb 59f 78f
4:12 2 3 mph 1010.6mb 59f 74f
4:06 2 3 mph 1010.7mb 59f 74f
4:00 1 6 mph 1010.7mb 59f 73f
3:54 5 6 mph 1010.8mb 59f 70f
3:48 3 6 mph 1010.8mb 59f 68f
3:42 5 7 mph 1010.8mb 59f 69f
3:36 5 6 mph 1010.9mb 60f 66f
3:30 5 6 mph 1010.9mb 60f 67f
3:24 6 7 mph 1010.9mb 60f 66f
3:18 5 6 mph 1010.9mb 60f 67f
3:12 3 6 mph 1010.8mb 60f 72f
3:06 5 6 mph 1010.8mb 60f 70f
3:00 2
mph
1010.8mb 60f 69f
2:54 3 5 mph 1010.7mb 60f 68f
2:48 5 8 mph 1010.5mb 60f 69f
2:42 8 10 mph 1010.6mb 60f 66f
2:36 3 7 mph 1010.7mb 60f 70f
2:30 1 5 mph 1010.8mb 60f 73f
2:24 5 6 mph 1010.8mb 60f 71f
2:18 5 8 mph 1010.8mb 60f 70f
2:12 7 8 mph 1010.8mb 61f 68f
2:06 6 7 mph 1010.8mb 60f 68f
2:00 5 6 mph 1010.9mb 60f 69f
1:54 5 6 mph 1011mb 61f 68f
1:48 5 6 mph 1010.9mb 60f 68f
1:42 6 7 mph 1011mb 60f 68f
1:36 5
mph
1011.1mb 60f 68f
1:30 5
mph
1011.1mb 61f 67f
1:24 5 7 mph 1011.1mb 61f 65f
1:18 2 6 mph 1011.3mb 61f 64f
1:12 3 6 mph 1011.2mb 60f 65f
1:06 6 7 mph 1011.1mb 60f 66f
1:00 3
mph
1011.4mb 60f 64f
12:54 2 3 mph 1011.5mb 60f 65f
12:48 3 5 mph 1011.5mb 60f 64f
12:42 1 2 mph 1011.5mb 60f 65f
12:36 2
mph
1011.5mb 60f 66f
12:30  -  2 mph 1011.6mb 60f 65f
12:24 2 5 mph 1011.5mb 60f 63f
12:18 3 5 mph 1011.5mb 60f 63f
12:12 2 3 mph 1011.4mb 60f 63f
12:06 3 6 mph 1011.4mb 60f 62f
12:00 5
mph
1011.4mb 60f 62f
11:54 3 5 mph 1011.4mb 60f 62f
11:48 2 3 mph 1011.4mb 60f 63f
11:42 1 3 mph 1011.5mb 60f 64f
11:36  -  1 mph 1011.4mb 60f 64f
11:30 2 3 mph 1011.6mb 59f 63f
11:24 2 3 mph 1011.7mb 59f 64f
11:18 2 3 mph 1011.7mb 59f 65f
11:12  -  5 mph 1011.7mb 59f 65f
11:06 5
mph
1011.7mb 59f 65f
11:00 5 6 mph 1011.7mb 59f 68f
10:54 5 6 mph 1011.8mb 59f 70f
10:48 5 6 mph 1011.8mb 59f 69f
10:42 5 7 mph 1011.7mb 58f 66f
10:36 7 8 mph 1011.7mb 59f 66f
10:30 7
mph
1011.8mb 59f 66f
10:24 6 7 mph 1011.9mb 58f 65f
10:18 5 6 mph 1011.9mb 58f 67f
10:12 5 7 mph 1011.9mb 58f 68f
10:06 5 7 mph 1012mb 58f 66f
10:00 6 8 mph 1011.9mb 58f 65f
9:54 3 6 mph 1012mb 58f 68f
9:48 6 9 mph 1012.1mb 58f 67f
9:42 7 10 mph 1012.1mb 58f 64f
9:36 5 7 mph 1012.3mb 58f 65f
9:30 3 5 mph 1012.3mb 58f 68f
9:24 6
mph
1012.3mb 58f 67f
9:18 3 6 mph 1012.3mb 58f 67f
9:12 3 5 mph 1012.3mb 58f 67f
9:06 5 6 mph 1012.2mb 58f 66f
9:00 6
mph
1012.3mb 58f 67f
8:54 5 6 mph 1012.2mb 58f 66f
8:48 5 6 mph 1012.1mb 58f 66f
8:42 3 5 mph 1012.1mb 58f 67f
8:36 3 5 mph 1012.2mb 58f 66f
8:30 1 2 mph 1012.3mb 58f 67f
8:24  -  3 mph 1012.3mb 58f 67f
8:18 2
mph
1012.4mb 58f 66f
8:12  -  3 mph 1012.4mb 58f 67f
8:06 2 3 mph 1012.4mb 58f 66f
8:00 3 5 mph 1012.3mb 58f 67f
7:54 2 5 mph 1012.3mb 58f 67f
7:48 1 3 mph 1012.3mb 58f 67f
7:42 2 5 mph 1012.2mb 58f 66f
7:36 2 3 mph 1012.1mb 58f 66f
7:30  -  1 mph 1012.1mb 58f 68f
7:24  -  2 mph 1012.2mb 58f 65f
7:18 2 3 mph 1012.3mb 58f 66f
7:12 2 3 mph 1012.2mb 58f 66f
7:06 2 7 mph 1012.2mb 58f 65f
7:00 5 6 mph 1012.2mb 58f 65f
6:54 6 7 mph 1012.2mb 58f 66f
6:48 6 7 mph 1012.2mb 58f 66f
6:42 6 7 mph 1012.2mb 58f 66f
6:36 5 7 mph 1012.1mb 58f 67f
6:30 3 6 mph 1012.1mb 58f 70f
6:24 5 6 mph 1012.1mb 58f 70f
6:18 3 5 mph 1012mb 58f 71f
6:12 3 6 mph 1012mb 58f 71f
6:06 2 7 mph 1011.9mb 58f 72f
6:00 3 8 mph 1012mb 58f 72f
5:54 3 7 mph 1012.1mb 58f 72f
5:48 3 10 mph 1011.9mb 58f 72f
5:42 6 11 mph 1011.8mb 58f 72f
5:36 2 14 mph 1011.7mb 58f 72f
5:30 2 9 mph 1011.7mb 58f 72f
5:24 5 16 mph 1011.6mb 58f 73f
5:18 2 10 mph 1011.5mb 57f 73f
5:12 7 11 mph 1011.6mb 57f 73f
5:06 6 15 mph 1011.4mb 57f 73f
5:00 2 13 mph 1011.4mb 57f 72f
4:54 5 15 mph 1011.4mb 57f 73f
4:48 11 21 mph 1011mb 57f 72f
4:42 13 21 mph 1011mb 57f 72f
4:36 14 20 mph 1011mb 57f 72f
4:30 13 20 mph 1011mb 57f 72f
4:24 14 18 mph 1010.9mb 57f 72f
4:18 10 18 mph 1011mb 57f 72f
4:12 11 18 mph 1011.1mb 57f 72f
4:06 11 18 mph 1011.1mb 57f 72f
4:00 13 18 mph 1010.9mb 57f 72f
3:54 11 23 mph 1010.9mb 57f 73f
3:48 13 22 mph 1010.9mb 57f 72f
3:42 11 20 mph 1011.1mb 57f 72f
3:36 10 17 mph 1011mb 57f 73f
3:30 10 17 mph 1011.1mb 57f 73f
3:24 11 18 mph 1011.2mb 57f 73f
3:18 10 18 mph 1011.3mb 57f 73f
3:12 11 17 mph 1011.2mb 57f 73f
3:06 14 21 mph 1011.2mb 57f 73f
3:00 11 21 mph 1011.3mb 57f 73f
2:54 11 22 mph 1011.4mb 57f 73f
2:48 9 18 mph 1011.5mb 57f -
2:42 9 16 mph 1011.5mb 57f -
2:36 10 16 mph 1011.5mb 57f -
2:30 13 16 mph 1011.5mb 57f 73f
2:24 10 15 mph 1011.6mb 57f 72f
2:18 9 15 mph 1011.6mb 57f 72f
2:12 9 16 mph 1011.7mb 57f 72f
2:06 11 17 mph 1011.8mb 57f 72f
2:00 10 16 mph 1011.8mb 57f 72f
1:54 9 15 mph 1011.8mb 57f 72f
1:48 8 16 mph 1011.9mb 57f -
1:42 8 15 mph 1011.9mb 57f -
1:36 7 15 mph 1011.8mb 57f -
1:30 9 16 mph 1011.7mb 57f 72f
1:24 10 20 mph 1011.6mb 57f 72f
1:18 10 16 mph 1011.6mb 57f 72f
1:12 14 21 mph 1011.5mb 57f 72f
1:06 10 21 mph 1011.5mb 57f 72f
1:00 13 22 mph 1011.5mb 57f 72f
12:54 13 18 mph 1011.5mb 57f 72f
12:48 14 20 mph 1011.6mb 57f 73f
12:42 15 23 mph 1011.6mb 57f 72f
12:36 14 22 mph 1011.6mb 57f 72f
12:30 13 21 mph 1011.7mb 57f 72f
12:24 14 22 mph 1011.7mb 57f 72f
12:18 14 22 mph 1011.6mb 57f 71f
12:12 11 23 mph 1011.7mb 57f 71f
12:06 10 22 mph 1011.8mb 57f 71f
12:00 14 21 mph 1011.9mb 57f 71f
jeu. 08/25 11:54 11 20 mph 1012.1mb 57f 71f
11:48 11 22 mph 1012.2mb 57f 71f
11:42 9 23 mph 1012.2mb 57f 72f
11:36 11 21 mph 1012.2mb 57f 72f
11:30 15 25 mph 1012.1mb 57f 72f
11:24 15 22 mph 1012mb 57f 72f
11:18 14 23 mph 1012mb 57f 72f
11:12 15 23 mph 1012.1mb 57f 72f
11:06 15 24 mph 1012.1mb 57f 72f
11:00 13 23 mph 1012.2mb 57f 72f
10:54 17 26 mph 1012.2mb 57f 72f
10:48 14 25 mph 1012.2mb 57f 72f
10:42 15 22 mph 1012.2mb 57f 72f
10:36 16 21 mph 1012.3mb 57f 72f
10:30 14 28 mph 1012.3mb 57f 72f
10:24 18 26 mph 1012.3mb 57f 72f
10:18  -  mph 1012.4mb 57f 72f
10:12  -  mph 1012.3mb 57f 72f
10:06  -  mph 1012.3mb 57f 72f
10:00  -  mph 1012.4mb 57f 72f
9:54  -  mph 1012.4mb 57f 72f
9:48  -  mph 1012.4mb 57f 72f
9:42  -  mph 1012.5mb 56f 72f
9:36  -  mph 1012.6mb 56f 72f
9:30 17 25 mph 1012.6mb 56f 72f
9:24 16 24 mph 1012.5mb 56f 72f
9:18  -  mph 1012.6mb 56f 72f
9:12  -  mph 1012.6mb 56f 72f
9:06  -  mph 1012.7mb 56f 72f
9:00 14 22 mph 1012.8mb 56f 72f
8:54 16 23 mph 1012.8mb 56f 72f
8:48  -  mph 1012.8mb 56f 72f
8:42  -  mph 1012.7mb 56f 72f
8:36  -  mph 1012.6mb 56f 72f
8:30 18 28 mph 1012.6mb 56f 72f
8:24 21 29 mph 1012.5mb 56f 73f
8:18  -  mph 1012.7mb 56f 73f
8:12  -  mph 1012.6mb 56f 73f
8:06  -  mph 1012.6mb 56f 73f
8:00  -  mph 1012.6mb 56f 72f
7:54  -  mph 1012.6mb 57f 72f
7:48 15 23 mph 1012.6mb 56f -
7:42 14 28 mph 1012.6mb 56f -
7:36 8 22 mph 1012.6mb 56f -
7:30 13 18 mph 1012.5mb 56f 73f
7:24 14 22 mph 1012.5mb 56f 73f
7:18  -  mph 1012.5mb 56f 73f
7:12  -  mph 1012.5mb 55f 73f
7:06  -  mph 1012.6mb 56f 73f
7:00  -  mph 1012.7mb 56f 73f
6:54  -  mph 1012.8mb 56f 73f
6:48  -  mph - 56f -
6:42  -  mph - 56f -
6:36  -  mph - 56f -
6:30 11 17 mph 1012.7mb 56f 73f